[[{"header":{"parameterUnit":"m.s-1","parameterCategory":1,"la1":30.2991,"la2":30.254,"lo1":-89.0895,"lo2":-89.0444,"dy":0.0017,"dx":0.0017,"nx":28,"ny":28,"refTime":"2024-04-14T09:00:00:Z","depth":0,"parameterNumber":2,"parameterNumberName":"U-component_of_WINDS"},"data":[0,0,0,0,0,0,0,0,0,0,0,0,0,0,0,0,0,0,0,0,0,0,0,0,0,0,0,0,0,0,0,0,0,0,0,0,0,0,0,0,0,0,0,0,0,0,0,0,0,0,0,0,0,0,0,0,0,0,-1.8821,-1.8822,0,-1.8893,-1.8893,-1.8894,-1.8906,-1.8906,-1.8905,-1.8905,-1.8979,-1.8982,-1.8984,0,0,0,0,0,0,0,0,0,0,0,0,0,-1.8698,-1.87,-1.8821,-1.8822,-1.8823,-1.8892,-1.8893,-1.8894,-1.8906,-1.8906,-1.8905,-1.8904,-1.8978,-1.8981,-1.8984,0,0,0,0,0,0,0,0,0,0,0,0,0,-1.8759,-1.8701,-1.8821,-1.8837,-1.8839,-1.8892,-1.8893,-1.8895,-1.8907,-1.8906,-1.8905,-1.8904,-1.8977,-1.8981,-1.8985,-1.9027,0,0,-1.8997,-1.8998,0,0,0,0,0,0,0,0,-1.8755,-1.8763,-1.8834,-1.8836,-1.8839,-1.889,-1.8877,-1.8939,-1.8907,-1.8881,-1.8905,-1.8903,-1.895,-1.8956,-1.8972,-1.903,-1.9033,-1.8997,-1.8999,-1.9001,-1.9002,0,0,0,0,0,0,0,-1.8751,-1.876,-1.8849,-1.8835,-1.8838,-1.8842,-1.885,-1.8889,-1.892,-1.8883,-1.8884,-1.8893,-1.8951,-1.8968,-1.8973,-1.9035,-1.8997,-1.9,-1.9003,-1.9004,-1.9133,-1.9134,0,0,0,0,0,0,-1.8744,-1.8757,-1.8847,-1.8852,-1.8794,-1.8845,-1.8853,-1.8874,-1.892,-1.8926,-1.8893,-1.8893,-1.8962,-1.8969,-1.8976,-1.9028,-1.9001,-1.9004,-1.9007,-1.9131,-1.9133,-1.9134,0,0,0,0,0,0,-1.8741,-1.8752,-1.8844,-1.8804,-1.8817,-1.8848,-1.8871,-1.8876,-1.8893,-1.8927,-1.8933,-1.8904,-1.8961,-1.8971,-1.9014,-1.9031,-1.9006,-1.901,-1.913,-1.9132,-1.9133,-1.9133,0,0,0,0,0,0,-1.8737,-1.875,-1.8766,-1.8805,-1.8819,-1.888,-1.8872,-1.8878,-1.8899,-1.8899,-1.8939,-1.8945,-1.8961,-1.9008,-1.9018,-1.9036,-1.9013,-1.9129,-1.9131,-1.9133,-1.9132,-1.9135,-1.9137,0,0,0,0,0,-1.8733,-1.8763,-1.8767,-1.8777,-1.8838,-1.8881,-1.8889,-1.8907,-1.89,-1.8917,-1.8939,-1.8943,-1.9028,-1.9013,-1.9024,-1.9043,-1.9128,-1.913,-1.9133,-1.913,-1.9134,-1.9137,0,0,0,0,0,0,-1.8726,-1.8768,-1.8773,-1.8816,-1.8845,-1.8883,-1.8904,-1.891,-1.8942,-1.8941,-1.8963,-1.8972,-1.9014,-1.9033,-1.9015,-1.9087,-1.9078,-1.9082,-1.9072,-1.9076,-1.9078,-1.9072,-1.9016,0,0,0,0,0,-1.8729,-1.8759,-1.8796,-1.8831,-1.8845,-1.8872,-1.8891,-1.8903,-1.8934,-1.8946,-1.8972,-1.9002,-1.9035,-1.9057,-1.909,-1.9135,-1.9144,-1.9154,-1.9157,-1.9159,-1.9162,-1.9189,-1.9193,-1.9142,-1.9142,-1.9142,0,0,-1.8736,-1.8764,-1.8781,-1.883,-1.8853,-1.8885,-1.8882,-1.8916,-1.894,-1.8951,-1.8993,-1.9014,-1.9049,-1.9094,-1.9115,-1.9111,-1.9179,-1.9162,-1.9163,-1.9166,-1.9192,-1.9196,-1.9201,-1.9144,-1.9144,-1.9143,0,0,-1.8766,-1.879,-1.8821,-1.8845,-1.8881,-1.8899,-1.8907,-1.8945,-1.8958,-1.9001,-1.9011,-1.9041,-1.9098,-1.9123,-1.9143,-1.9184,-1.919,-1.9195,-1.9208,-1.9233,-1.9237,-1.9241,-1.9255,-1.926,-1.9198,-1.9198,-1.9198,0,-1.877,-1.8818,-1.8837,-1.887,-1.8892,-1.8904,-1.8937,-1.896,-1.9005,-1.902,-1.9015,-1.9088,-1.9112,-1.9163,-1.9174,-1.919,-1.92,-1.9189,-1.9235,-1.9239,-1.9242,-1.9256,-1.9262,-1.9199,-1.9199,-1.9198,-1.9198,0,-1.8822,-1.8855,-1.8877,-1.8919,-1.8943,-1.8976,-1.9001,-1.9024,-1.9034,-1.9053,-1.9098,-1.9128,-1.9167,-1.9181,-1.9191,-1.9234,-1.923,-1.923,-1.9221,-1.9247,-1.9261,-1.9266,-1.9199,-1.9199,-1.9199,-1.9199,0,0,-1.8847,-1.8901,-1.8908,-1.8928,-1.897,-1.8996,-1.903,-1.9069,-1.9087,-1.9119,-1.9148,-1.9197,-1.9198,-1.9221,-1.9235,-1.9257,-1.9288,-1.9254,-1.9255,-1.9259,-1.9337,-1.9336,-1.9342,-1.9292,-1.9293,-1.9294,-1.9334,0,-1.888,-1.8941,-1.896,-1.9011,-1.9042,-1.9055,-1.9086,-1.9115,-1.9134,-1.9164,-1.9186,-1.922,-1.9218,-1.9232,-1.9255,-1.9279,-1.9303,-1.9277,-1.932,-1.9321,-1.9309,-1.9349,-1.9348,-1.9383,-1.9339,-1.934,-1.9341,0,-1.8927,-1.8959,-1.9013,-1.9051,-1.9065,-1.9091,-1.9129,-1.9157,-1.9191,-1.9204,-1.923,-1.9243,-1.928,-1.927,-1.9323,-1.9304,-1.9324,-1.9338,-1.934,-1.9344,-1.9331,-1.9353,-1.9395,-1.94,-1.9349,-1.9349,-1.9348,0,-1.8939,-1.8996,-1.9035,-1.9052,-1.9098,-1.9116,-1.9137,-1.917,-1.9192,-1.9225,-1.924,-1.9277,-1.9298,-1.9327,-1.9349,-1.934,-1.94,-1.9392,-1.9412,-1.9411,-1.9422,-1.9421,-1.9467,-1.9437,-1.9436,-1.9436,-1.9436,0,-1.8974,-1.9006,-1.9041,-1.9065,-1.9102,-1.9125,-1.9162,-1.9183,-1.9213,-1.9242,-1.9257,-1.9284,-1.9313,-1.9344,-1.9363,-1.9403,-1.9413,-1.9424,-1.9428,-1.9422,-1.9421,-1.9434,-1.9432,-1.9438,-1.9438,-1.9437,-1.9437,0,-1.8993,-1.9018,-1.9062,-1.9102,-1.9113,-1.9138,-1.9173,-1.9198,-1.9219,-1.9256,-1.9266,-1.9299,-1.9337,-1.9362,-1.9411,-1.9424,-1.9468,-1.9472,-1.9456,-1.9457,-1.9476,-1.9473,-1.9531,-1.954,-1.9504,-1.9505,-1.9505,0,-1.9013,-1.9038,-1.9081,-1.9101,-1.9122,-1.9154,-1.9177,-1.9202,-1.9225,-1.9267,-1.9287,-1.9326,-1.9358,-1.9418,-1.9447,-1.9485,-1.9489,-1.9507,-1.9495,-1.9488,-1.9489,-1.9487,-1.949,-1.9509,-1.9509,-1.9509,-1.9509,0,-1.9046,-1.9057,-1.9089,-1.9125,-1.9152,-1.9183,-1.9213,-1.9229,-1.9259,-1.9285,-1.9324,-1.9349,-1.9399,-1.9438,-1.9479,-1.9501,-1.951,-1.9513,-1.952,-1.9513,-1.9502,-1.9508,-1.946,-1.9511,-1.9511,-1.9511,-1.9511,-1.9511,-1.9065,-1.9088,-1.9122,-1.9158,-1.9184,-1.9212,-1.9237,-1.9261,-1.9294,-1.9336,-1.9349,-1.939,-1.9425,-1.9481,-1.9503,-1.9536,-1.9535,-1.9544,-1.9546,-1.9548,-1.9548,-1.9498,-1.9544,-1.9544,-1.9544,-1.9544,-1.9544,0,-1.9098,-1.9121,-1.9154,-1.9196,-1.9224,-1.9231,-1.9265,-1.9289,-1.9324,-1.9356,-1.9387,-1.9433,-1.9471,-1.9503,-1.9543,-1.9563,-1.9568,-1.9572,-1.957,-1.9575,-1.9547,-1.9537,-1.9567,-1.9567,-1.9567,-1.9567,-1.9567,-1.9567,-1.9119,-1.9158,-1.9174,-1.9227,-1.925,-1.9289,-1.9308,-1.9335,-1.9361,-1.941,-1.9442,-1.9463,-1.9495,-1.9537,-1.9573,-1.9582,-1.9595,-1.9598,-1.9608,-1.958,-1.9577,-1.9575,-1.9565,-1.9601,-1.9601,-1.9634,-1.9634,-1.9634]},{"header":{"parameterUnit":"m.s-1","parameterCategory":1,"la1":30.2991,"la2":30.254,"lo1":-89.0895,"lo2":-89.0444,"dy":0.0017,"dx":0.0017,"nx":28,"ny":28,"refTime":"2024-04-14T09:00:00:Z","depth":0,"parameterNumber":3,"parameterNumberName":"V-component_of_WINDS"},"data":[0,0,0,0,0,0,0,0,0,0,0,0,0,0,0,0,0,0,0,0,0,0,0,0,0,0,0,0,0,0,0,0,0,0,0,0,0,0,0,0,0,0,0,0,0,0,0,0,0,0,0,0,0,0,0,0,0,0,4.7322,4.7321,0,4.7217,4.7216,4.7214,4.7085,4.7083,4.7081,4.7079,4.6966,4.6965,4.6964,0,0,0,0,0,0,0,0,0,0,0,0,0,4.7408,4.7407,4.7322,4.7321,4.7319,4.7217,4.7215,4.7214,4.7085,4.7083,4.708,4.7078,4.6966,4.6965,4.6964,0,0,0,0,0,0,0,0,0,0,0,0,0,4.7343,4.7406,4.7322,4.7243,4.7235,4.7217,4.7215,4.7214,4.7086,4.7083,4.708,4.7077,4.6967,4.6965,4.6964,4.7014,0,0,4.6958,4.6958,0,0,0,0,0,0,0,0,4.7347,4.734,4.7256,4.7248,4.7239,4.7161,4.7204,4.7147,4.7086,4.7142,4.7079,4.7075,4.7033,4.7026,4.7012,4.7009,4.7004,4.6958,4.6957,4.6957,4.6956,0,0,0,0,0,0,0,4.7352,4.7344,4.728,4.7255,4.7245,4.7211,4.7199,4.7193,4.7106,4.7137,4.7127,4.7117,4.7028,4.7014,4.7009,4.7002,4.6958,4.6957,4.6956,4.6955,4.7034,4.7037,0,0,0,0,0,0,4.7369,4.7349,4.7283,4.7277,4.7287,4.7212,4.7198,4.7189,4.7105,4.709,4.712,4.7111,4.7019,4.7011,4.7004,4.7058,4.6957,4.6955,4.6954,4.7031,4.7035,4.7038,0,0,0,0,0,0,4.7371,4.7364,4.7288,4.731,4.7298,4.7214,4.7205,4.7189,4.7175,4.7092,4.7076,4.7122,4.7016,4.7007,4.7013,4.7052,4.6954,4.6953,4.7028,4.7032,4.7037,4.7166,0,0,0,0,0,0,4.7374,4.7366,4.7385,4.7312,4.7297,4.73,4.7207,4.7189,4.7173,4.7161,4.709,4.7076,4.7013,4.7016,4.7011,4.7048,4.6951,4.7024,4.703,4.7035,4.7158,4.7174,4.7189,0,0,0,0,0,4.7378,4.7424,4.7387,4.7379,4.732,4.7302,4.7294,4.7222,4.7177,4.7195,4.7142,4.7078,4.7049,4.7018,4.7011,4.7048,4.7021,4.7028,4.7035,4.7151,4.7171,4.7188,0,0,0,0,0,0,4.7503,4.7413,4.737,4.7395,4.7358,4.7281,4.7301,4.7246,4.7219,4.7209,4.7119,4.7105,4.7122,4.7085,4.7052,4.7093,4.7025,4.7032,4.7116,4.7134,4.715,4.7158,4.695,0,0,0,0,0,4.7534,4.7528,4.745,4.7479,4.7463,4.7386,4.7375,4.7324,4.728,4.7263,4.721,4.717,4.7151,4.7141,4.7119,4.7152,4.7134,4.7174,4.719,4.7203,4.7209,4.7223,4.724,4.7061,4.7061,4.7061,0,0,4.7597,4.7547,4.7549,4.7503,4.7468,4.7463,4.7373,4.7372,4.7367,4.7262,4.7266,4.7226,4.7174,4.7194,4.72,4.7164,4.7254,4.7212,4.7223,4.7221,4.7232,4.7249,4.7264,4.7066,4.7065,4.7065,0,0,4.7709,4.7672,4.7692,4.7659,4.7608,4.7556,4.7562,4.7493,4.7463,4.7465,4.7387,4.7379,4.7349,4.7316,4.7295,4.7396,4.7336,4.7391,4.7472,4.7487,4.7501,4.7513,4.7549,4.7563,4.7398,4.7398,4.7398,0,4.7793,4.7785,4.7709,4.7713,4.7695,4.7602,4.7622,4.7593,4.7537,4.7526,4.7487,4.7448,4.7407,4.7418,4.7443,4.7429,4.7431,4.7399,4.7506,4.7517,4.7527,4.756,4.7574,4.7405,4.7404,4.7404,4.7403,0,4.7891,4.7886,4.7909,4.7859,4.7843,4.7855,4.778,4.7773,4.7723,4.7676,4.7679,4.7627,4.7593,4.7592,4.7542,4.7596,4.7575,4.7522,4.7453,4.7552,4.7582,4.7594,4.7415,4.7413,4.7411,4.7409,0,0,4.8078,4.7988,4.7997,4.7973,4.791,4.7904,4.7912,4.7881,4.7876,4.7841,4.7844,4.7822,4.7773,4.7749,4.7695,4.7709,4.7792,4.7653,4.7651,4.7681,4.7848,4.7888,4.7904,4.7752,4.7754,4.7756,4.7852,0,4.8179,4.8188,4.8121,4.8147,4.8142,4.8054,4.806,4.8022,4.7978,4.7965,4.7915,4.7901,4.7838,4.7823,4.7833,4.778,4.7824,4.7772,4.7753,4.7753,4.7769,4.7919,4.7961,4.8054,4.7863,4.7865,4.7866,0,4.8297,4.827,4.8297,4.8233,4.8228,4.8236,4.8202,4.8192,4.8146,4.8112,4.8088,4.8026,4.8027,4.7962,4.7962,4.7929,4.7917,4.789,4.7892,4.7887,4.7816,4.7918,4.8082,4.8096,4.7884,4.7882,4.7881,0,4.8431,4.8401,4.8414,4.8396,4.8322,4.8329,4.8298,4.8249,4.8235,4.8205,4.8195,4.8165,4.8149,4.8127,4.8058,4.8017,4.8066,4.7995,4.8038,4.804,4.8051,4.8051,4.8216,4.8045,4.8045,4.8044,4.8044,0,4.855,4.857,4.8473,4.8481,4.85,4.8422,4.8443,4.8403,4.8361,4.8358,4.828,4.8278,4.8188,4.8177,4.8123,4.8131,4.8124,4.8097,4.8082,4.8104,4.8107,4.8094,4.8086,4.8048,4.8047,4.8047,4.8046,0,4.8703,4.8639,4.8647,4.8576,4.8559,4.8577,4.8516,4.8519,4.8471,4.8469,4.8463,4.8387,4.8369,4.8299,4.8264,4.8228,4.8253,4.8225,4.827,4.826,4.8307,4.8303,4.8468,4.8485,4.8304,4.8306,4.8308,0,4.8783,4.8797,4.8729,4.8722,4.8695,4.8686,4.8671,4.8595,4.8583,4.8533,4.8542,4.8519,4.8496,4.8471,4.8412,4.8384,4.8354,4.8414,4.835,4.8371,4.8355,4.8355,4.8356,4.8428,4.843,4.8432,4.8434,0,4.8932,4.89,4.8883,4.8856,4.8842,4.8816,4.8785,4.8784,4.8699,4.8689,4.8671,4.8654,4.8619,4.8597,4.856,4.8526,4.8466,4.8455,4.8463,4.8485,4.8511,4.8497,4.8307,4.8451,4.8449,4.8448,4.8447,4.8447,4.905,4.9058,4.9012,4.8996,4.8966,4.8939,4.8939,4.8892,4.8876,4.8843,4.8799,4.8787,4.874,4.8685,4.8656,4.8644,4.861,4.8623,4.8626,4.863,4.8641,4.8513,4.8637,4.8636,4.8636,4.8635,4.8635,0,4.9195,4.9161,4.9148,4.9108,4.9096,4.9043,4.9006,4.8999,4.899,4.8952,4.8932,4.8912,4.8889,4.8829,4.8801,4.8803,4.8775,4.8798,4.8797,4.879,4.8672,4.8668,4.8821,4.8821,4.8821,4.8821,4.8821,4.8821,4.9269,4.928,4.9243,4.9238,4.9203,4.9192,4.9176,4.9151,4.9121,4.9102,4.9084,4.9046,4.8998,4.8966,4.8943,4.8926,4.8919,4.8951,4.8925,4.8816,4.8798,4.8781,4.8777,4.8951,4.8951,4.9043,4.9044,4.9045]}]]